Regional Weather Roundup
Issued by NWS Little Rock, AR

Home | Current Version | Previous Version | Graphics & Text | Print | Product List | Glossary Off
Versions: 1 2 3 4 5 6 7 8 9 10 11 12 13 14 15 16 17 18 19 20 21 22 23 24 25 26 27 28 29 30 31 32 33 34 35 36 37 38 39 40 41 42 43 44 45 46 47 48 49 50

000
ASUS44 KLZK 251005
RWRLZK

WEATHER ROUNDUP FOR ARKANSAS
NATIONAL WEATHER SERVICE LITTLE ROCK AR
500 AM CDT MON MAY 25 2015

NOTE: "FAIR" INDICATES FEW OR NO CLOUDS BELOW 12,000 FEET WITH NO
SIGNIFICANT WEATHER AND/OR OBSTRUCTIONS TO VISIBILITY.

ARZ001-003-010-029-251100-
NORTHWEST ARKANSAS

CITY           SKY/WX    TMP DP  RH WIND       PRES   REMARKS
FAYETTEVILLE   PTCLDY    59  59 100 CALM      29.95R FOG
FORT SMITH     CLOUDY    64  62  93 NE6       29.93S FOG
HARRISON       PTCLDY    61  60  97 S5        29.97R
BENTONVILLE    CLEAR    N/A N/A N/A S6        29.93F
ROGERS         CLEAR     60  60 100 SE8       29.95S
SILOAM SPGS    CLEAR     57  54  88 SE6       29.94F
HIGHFILL       MOCLDY    59  58  96 S6        29.93S FOG
$$

ARZ004-005-016-251100-
NORTH CENTRAL ARKANSAS

CITY           SKY/WX    TMP DP  RH WIND       PRES   REMARKS
BATESVILLE     CLOUDY    70  66  88 SE5       29.98S
FLIPPIN        PTCLDY    63  63 100 CALM      29.94S
MTN HOME       MOCLDY    64  64 100 S5        29.96R
$$

ARZ040-041-251100-
WEST CENTRAL ARKANSAS

CITY           SKY/WX    TMP DP  RH WIND       PRES   REMARKS
MENA           CLOUDY    70  70 100 CALM      29.96F
MOUNT IDA      CLOUDY    71  66  84 VRB3      29.94S
$$

ARZ009-017-025-026-028-251100-
NORTHEAST ARKANSAS

CITY           SKY/WX    TMP DP  RH WIND       PRES   REMARKS
CORNING        CLOUDY    68  68 100 S8        29.99F
JONESBORO      CLOUDY    67  67 100 S7        30.00R
NEWPORT        CLOUDY    70  69  96 S12       30.00R
WALNUT RIDGE   CLOUDY    70  66  88 S12       29.99R
BLYTHEVILLE    LGT RAIN  69  32  25 S10       30.02F
$$

ARZ022-023-033-042-044-251100-
CENTRAL ARKANSAS

CITY           SKY/WX    TMP DP  RH WIND       PRES   REMARKS
LITTLE ROCK    CLOUDY    71  67  87 S5        29.99R FOG
N LITTLE ROCK    N/A     69  69 100 S7        29.99R
JACKSONVILLE   MOCLDY    70  70  99 VRB3      29.98R
SEARCY         CLOUDY    70  69  97 S7        30.00R
HOT SPRINGS    CLOUDY    70  67  90 CALM      29.98R
RUSSELLVILLE   CLOUDY    68  67  96 CALM      29.96R
CLINTON        CLOUDY    68  68 100 S3        29.99R
$$

ARZ036-251100-
EAST ARKANSAS

CITY           SKY/WX    TMP DP  RH WIND       PRES   REMARKS
WEST MEMPHIS   CLOUDY    68  68 100 S10       30.01S
$$

ARZ050-053-066-070-073-251100-
SOUTHWEST ARKANSAS

CITY           SKY/WX    TMP DP  RH WIND       PRES   REMARKS
ARKADELPHIA    CLOUDY    69  69 100 VRB3      29.98S FOG
CAMDEN         CLOUDY    68  66  94 CALM      29.99R
TEXARKANA      CLOUDY    70  68  93 S8        29.96R
EL DORADO      CLOUDY    69  68  96 SE8       29.99R
DE QUEEN       CLOUDY    70  68  93 SE5       29.93S
$$

ARZ056-057-069-251100-
SOUTHEAST ARKANSAS

CITY           SKY/WX    TMP DP  RH WIND       PRES   REMARKS
PINE BLUFF     MOCLDY    70  68  93 S7        30.00R
STUTTGART      CLOUDY    72  66  83 MISG      30.01R
MONTICELLO     CLOUDY    70  69  97 S9        30.01R

$$





USA.gov is the U.S. government's official web portal to all federal, state and local government web resources and services.